Location: San Antonio
(29.4240°N, 98.4930°W)
Time: 08:06:44
(UTC-05:00)

Altair - Visible Passes

Search period start: 19 July 2024 00:00
Search period end: 29 July 2024 00:00
Orbit: 1502 x 1682 km, 47.2° (Epoch: 18 July)

Date Brightness Start Highest point End Pass type
(mag) Time Alt. Az. Time Alt. Az. Time Alt. Az.
19 Jul 8.1 01:18:24 10° NW 01:27:07 46° NNE 01:30:53 32° ENE visible
19 Jul 8.0 03:23:01 10° WNW 03:28:44 41° WNW 03:28:44 41° WNW visible
19 Jul 9.1 22:47:35 10° NW 22:54:50 25° N 23:02:05 10° NE visible
20 Jul 8.2 00:53:13 10° NW 01:01:50 43° NNE 01:05:21 32° ENE visible
20 Jul 8.0 02:57:46 10° NW 03:03:14 40° WNW 03:03:14 40° WNW visible
20 Jul 9.2 22:22:09 10° NW 22:29:25 25° N 22:36:39 10° NE visible
21 Jul 8.3 00:28:01 10° NW 00:36:31 40° NNE 00:40:14 29° ENE visible
21 Jul 8.0 02:32:33 10° NW 02:38:09 42° WNW 02:38:09 42° WNW visible
21 Jul 9.2 21:56:43 10° NW 22:04:00 25° N 22:11:14 10° NE visible
22 Jul 8.4 00:02:49 10° NW 00:11:12 38° NNE 00:15:22 26° ENE visible
22 Jul 7.9 02:07:20 10° NW 02:13:18 47° WNW 02:13:18 47° WNW visible
22 Jul 9.2 21:31:16 10° NW 21:38:35 25° N 21:45:50 10° NE visible
22 Jul 8.5 23:37:38 10° NW 23:45:53 36° NNE 23:50:40 23° ENE visible
23 Jul 7.8 01:42:07 10° NW 01:48:37 52° NW 01:48:37 52° NW visible
23 Jul 9.2 21:05:47 10° WNW 21:13:10 25° N 21:20:28 10° NE visible
23 Jul 8.6 23:12:24 10° NW 23:20:32 34° NNE 23:26:05 19° ENE visible
24 Jul 7.7 01:16:55 10° NW 01:24:02 60° NW 01:24:02 60° NW visible
24 Jul 8.6 22:47:10 10° NW 22:55:11 32° NNE 23:01:36 15° ENE visible
25 Jul 7.5 00:51:44 10° NW 00:59:34 68° NNW 00:59:34 68° NNW visible
25 Jul 8.7 22:21:54 10° NW 22:29:49 31° NNE 22:37:10 12° ENE visible
26 Jul 7.4 00:26:32 10° NW 00:35:09 73° N 00:35:09 73° N visible
26 Jul 9.3 02:32:16 10° WNW 02:33:07 13° WNW 02:33:07 13° WNW visible
26 Jul 8.7 21:56:38 10° NW 22:04:27 29° NNE 22:12:12 10° ENE visible
27 Jul 7.4 00:01:21 10° NW 00:10:31 70° NE 00:10:48 70° NE visible
27 Jul 9.1 02:06:51 10° WNW 02:08:47 17° WNW 02:08:47 17° WNW visible
27 Jul 8.8 21:31:21 10° NW 21:39:04 28° NNE 21:46:42 10° ENE visible
27 Jul 7.5 23:36:11 10° NW 23:45:18 65° NE 23:46:31 60° ENE visible
28 Jul 8.9 01:41:28 10° WNW 01:44:30 21° W 01:44:30 21° W visible
28 Jul 8.9 21:06:02 10° NW 21:13:41 28° NNE 21:21:14 10° ENE visible
28 Jul 7.6 23:10:59 10° NW 23:20:04 60° NE 23:22:17 49° E visible
